Weather in Borki

Russia / Lipetsk Oblast     52°08′52″N   38°06′00″E
temp.,
°C
wind,
m/s
gust,
m/s
humid.,
%
clouds,
%
prec.,
mm/h
press.,
hPa
HPBL,
m
12 april, mon
mon1200:00+7ne5126298 0.0 1029320
03:00+6ene51270100 0.0 1028381
06:00+5ene51084100 0.0 1028319
09:00+8ene6984100 0.0 1028377
12:00+14e6968100 0.0 1026612
15:00+19e794919 0.0 10251048
18:00+18e6115150 0.0 1024346
21:00+14ese614585 0.0 1025285
13 april, tue
tue1300:00+12ese51367100 0.0 1025247
03:00+10ese4116969 0.0 1025193
06:00+9ese4116992 0.0 1025179
09:00+14se6105547 0.0 1025412
12:00+18se710417 0.0 10241362
15:00+20se710315 0.0 10232077
18:00+19se611375 0.0 1022397
21:00+14ese5135314 0.0 1023253
14 april, wed
wed1400:00+12se495857 0.0 1023188
03:00+10se38645 0.0 1022134
06:00+9ese356775 0.0 102180
09:00+14se5850100 0.0 1021396
12:00+18se6838100 0.0 10191020
15:00+19se6728100 0.0 10181667
18:00+17se3738100 0.0 1017191
21:00+13se3446100 0.0 101751
15 april, thu
thu1500:00+12sse3552100 0.0 101774
03:00+12ne3357100 0.0 101634
06:00+11ne4557100 0.0 101665
09:00+14ese3452100 0.0 1016240
12:00+18e454185 0.0 1015941
15:00+19ese4533100 0.0 10142344
18:00+18e3641100 0.0 1013193
21:00+15e3754100 0.0 1012127
16 april, fri
fri1600:00+13ese336099 0.0 101250
03:00+11s227086 0.0 101121
06:00+11ese357389 0.1 101294
09:00+11ne4777100 0.8 1012180
12:00+11ene127997 0.6 101375
15:00+14nne4566100 1.1 1012704
18:00+11nne61093100 2.8 1012754
21:00+8nne91590100 14.6 10141066